Tracking 21045 objects as of 4-Aug-2020
HD Live streaming from Space Station
objects crossing your sky now

USA 15 DEB

Track USA 15 DEB now!
10-day predictions


NORAD ID: 16623
Int'l Code: 1986-014D
Perigee: 316.0 km
Apogee: 637.3 km
Inclination: 63.3 °
Period: 94.0 minutes
Semi major axis: 6847 km
RCS: Unknown
Launch date: February 9, 1986
Source: United States (US)
Launch site: AIR FORCE WESTERN TEST RANGE (AFWTR)

Note: This is SATELLITE DEBRIS
aabbcc
Your satellite tracking list
Your tracking list is empty




NASA's NSSDC Master Catalog

Two Line Element Set (TLE):
1 16623U 86014D   20217.38386142 +.00156351 +00000-0 +20214-2 0  9996
2 16623 063.2663 102.5448 0234591 081.5965 281.1669 15.32107598055675
Source of the keplerian elements: McCants